スコッティ彗星

431P/Scotti (2015)

English version
Home page
Updated on October 6, 2021

---------------------------------------------------------------------

・ プロフィール

符号 431P/2015 Q1
発見日 2015年8月18日
発見光度 18.9等
発見者 J. V. Scotti (Spacewatch, Kitt Peak)

・ 写真集

・ 軌道要素

Epoch 2015 Sept. 15.0 TT = JDT 2457280.5                                        
T 2015 Sept.  9.15650 TT                                Rudenko                 
q   1.7516758            (2000.0)            P               Q                  
n   0.15519460     Peri.  198.96538     +0.74983999     -0.64383293             
a   3.4294014      Node   203.30981     +0.64584701     +0.76227562             
e   0.4892182      Incl.   22.64888     +0.14360230     -0.06644567             
P   6.35                                                                        
From 386 observations 2015 Aug. 18-2021 Aug. 16, mean residual 0".8.            

・ 光度変化

        m1 = 10.0 + 5 logΔ + 25.0 log r(t - 70)

---------------------------------------------------------------------

軌道要素はM.P.E.C. 2021-Q75に掲載されたものです。
光度グラフはComet for Windowsで作成したものです。

---------------------------------------------------------------------

Copyright(C) Seiichi Yoshida (comet@aerith.net). All rights reserved.